This is the latest recevied weather packets stored in our database for station/object OE3FJB-25. If no packets are shown the sender has not sent any weather packets the latest 10 day(s).
| Time | Temp. | Humidity | Pressure | Rain* | Wind** | Luminosity | Snow |
|---|---|---|---|---|---|---|---|
| 1777299278 | 16.11° C | 29% | 1022.9 hPa | - | - | - | - |
| 1777298679 | 15.56° C | 30% | 1023 hPa | - | - | - | - |
| 1777295686 | 15.56° C | 33% | 1023.4 hPa | - | - | - | - |
| 1777292692 | 15.56° C | 30% | 1023.6 hPa | - | - | - | - |
| 1777292094 | 16.11° C | 30% | 1023.8 hPa | - | - | - | - |
| 1777290298 | 16.11° C | 33% | 1024 hPa | - | - | - | - |
| 1777289699 | 17.22° C | 32% | 1024 hPa | - | - | - | - |
| 1777289100 | 17.78° C | 32% | 1024.1 hPa | - | - | - | - |
| 1777288502 | 17.22° C | 34% | 1024.2 hPa | - | - | - | - |
| 1777287903 | 16.67° C | 35% | 1024.3 hPa | - | - | - | - |
| 1777286706 | 15° C | 39% | 1024.3 hPa | - | - | - | - |
| 1777286107 | 13.89° C | 41% | 1024.5 hPa | - | - | - | - |
| 1777285509 | 13.89° C | 42% | 1024.4 hPa | - | - | - | - |
| 1777284910 | 13.89° C | 42% | 1024.5 hPa | - | - | - | - |
| 1777284311 | 14.44° C | 42% | 1024.6 hPa | - | - | - | - |
| 1777281917 | 14.44° C | 43% | 1024.8 hPa | - | - | - | - |
| 1777281318 | 15° C | 42% | 1024.9 hPa | - | - | - | - |
| 1777280719 | 15° C | 45% | 1024.9 hPa | - | - | - | - |
| 1777280121 | 13.33° C | 56% | 1025 hPa | - | - | - | - |
| 1777279522 | 12.22° C | 61% | 1025.1 hPa | - | - | - | - |
| 1777278923 | 12.22° C | 68% | 1025.1 hPa | - | - | - | - |
| 1777278325 | 11.11° C | 79% | 1025 hPa | - | - | - | - |
| 1777277726 | 10.56° C | 82% | 1025 hPa | - | - | - | - |
| 1777277127 | 10° C | 89% | 1024.9 hPa | - | - | - | - |
| 1777276528 | 10° C | 89% | 1024.8 hPa | - | - | - | - |
* Rain since midnight (hover to see other rain measurements)
** Current wind speed in m/s (hover to see current wind gust speed)